Wind_Speed
48 47 47 46 45 44 44 45 45 46 46 46 45 44 43 41 40 40 40 40 40 40 41 43 44 45 46 46 46 46 46 46 44 43 40 38 35 33
49 50 50 49 49 49 48 48 48 48 48 47 46 45 42 40 40 41 41 41 41 41 43 44 45 46 46 46 46 46 46 45 43 41 39 36 34 32
49 50 50 50 51 51 51 50 50 49 48 48 47 44 43 42 42 41 42 42 42 43 44 44 45 45 45 45 45 45 45 43 41 39 36 34 32 30
49 50 51 51 52 52 52 51 50 49 48 47 45 45 45 44 43 43 43 43 43 43 44 44 44 45 45 45 44 44 43 41 39 37 34 32 30 27
50 50 51 52 51 51 51 51 49 48 48 46 45 45 45 45 45 44 43 43 43 43 44 44 44 44 44 44 43 42 41 39 37 34 31 29 28 26
51 52 52 53 52 51 50 49 48 48 48 47 46 46 46 45 44 43 43 43 43 43 44 44 44 43 44 43 42 40 39 37 34 32 30 27 26 25
52 52 52 52 51 50 49 49 49 48 48 47 47 46 45 44 43 43 43 44 44 44 45 44 44 43 42 41 40 38 36 34 32 30 28 26 25 24
50 51 50 50 50 50 50 50 49 49 49 48 48 46 45 45 44 44 44 45 45 45 45 44 43 42 41 40 38 36 34 32 30 28 26 25 23 22
51 51 51 51 51 51 50 49 49 49 48 49 48 48 47 46 45 45 45 45 45 45 44 43 42 41 39 37 35 34 32 30 28 27 25 24 22 21
54 53 53 53 53 53 52 52 51 51 50 50 49 50 49 48 47 47 46 46 45 44 43 42 41 39 37 35 34 32 30 29 27 26 24 23 22 21
56 56 56 55 56 56 55 54 54 53 53 53 52 50 50 49 48 48 46 45 44 44 42 41 39 37 36 34 32 31 29 27 26 25 24 23 22 21
58 58 58 58 58 58 57 56 56 55 54 53 52 51 50 49 48 47 46 44 44 43 41 39 37 36 34 33 31 30 28 27 26 25 24 23 22 22
59 60 60 59 59 58 58 57 56 55 54 53 52 51 50 49 47 46 45 44 43 42 40 38 36 34 33 32 30 29 28 27 26 25 24 23 23 22
60 60 61 61 61 60 59 58 57 56 55 53 52 50 49 47 46 45 44 43 42 40 39 36 35 33 32 31 30 29 28 27 26 25 24 23 23 23
61 60 60 60 60 59 58 57 56 55 54 52 50 49 48 47 45 44 44 42 41 39 38 36 34 33 32 31 30 29 28 27 26 25 24 24 24 24
61 61 60 58 58 57 56 56 55 54 52 51 50 49 48 46 45 44 42 41 40 39 37 36 35 34 32 31 30 29 28 27 27 26 25 25 25 25
58 58 59 58 57 56 55 54 54 53 52 51 51 49 48 47 45 43 42 40 39 38 37 36 34 33 32 31 30 29 29 28 27 27 26 26 26 26
56 56 57 56 56 55 54 53 53 52 51 50 50 49 47 45 44 43 42 40 38 37 36 35 34 33 32 31 31 30 29 28 28 27 27 27 27 27
54 54 55 55 54 54 54 53 52 51 50 49 49 47 46 45 44 43 41 40 39 37 35 35 34 33 32 32 31 31 30 29 28 28 28 28 28 28
52 52 52 52 52 52 52 51 51 50 49 48 47 46 45 44 43 42 41 39 38 36 35 35 34 33 33 32 32 31 30 29 29 29 29 29 29 29
48 49 49 49 50 49 49 49 49 48 48 47 46 44 43 42 42 41 39 38 36 35 35 35 35 34 33 32 32 31 31 30 30 30 30 30 30 30
45 46 46 46 47 47 46 46 46 46 45 44 43 42 41 40 39 38 37 37 36 36 36 35 35 34 33 33 32 32 32 31 31 31 31 31 31 31
40 42 42 43 45 45 44 44 44 44 43 42 40 39 39 38 38 37 36 36 35 35 35 35 34 34 34 33 33 32 32 32 32 32 32 32 32 33
Wind_Direction
250 252 254 257 257 259 260 262 264 266 268 269 270 270 269 269 270 272 276 279 280 283 286 288 290 293 295 297 298 300 301 301 301 299 298 297 295 291
251 254 256 258 259 261 262 263 265 266 267 267 267 266 265 265 269 272 275 278 279 282 284 286 289 292 295 296 297 299 300 300 299 298 298 296 293 289
255 257 258 259 260 260 262 262 264 265 265 266 266 265 264 266 269 271 274 276 278 281 283 286 289 292 293 295 296 298 299 299 298 298 297 295 291 286
256 258 258 259 260 260 260 260 261 263 263 264 263 263 264 266 268 271 273 276 278 280 283 286 288 290 292 294 296 297 298 298 297 297 296 293 289 284
256 257 258 259 260 260 260 260 260 260 261 261 261 262 263 265 268 270 273 275 277 279 282 285 287 289 292 293 295 296 297 297 297 296 294 290 287 284
257 258 258 258 258 258 258 257 256 257 257 257 258 261 263 264 266 269 272 274 277 280 282 284 287 289 291 293 294 295 295 295 295 293 290 287 285 282
258 257 256 255 255 255 253 254 254 254 256 257 259 261 262 264 266 269 272 275 277 280 282 283 285 288 291 292 292 293 293 293 292 290 287 285 282 280
255 255 254 253 253 252 252 253 254 255 257 258 259 260 261 264 266 268 271 274 276 278 280 282 284 287 288 290 291 291 291 291 289 286 285 283 280 277
255 255 254 252 251 250 250 251 253 255 256 257 259 260 262 263 265 267 270 272 275 277 279 281 283 285 286 288 288 288 289 288 286 282 281 279 276 274
254 252 251 251 251 250 251 252 253 254 256 257 258 260 261 263 264 266 269 271 274 276 277 279 281 282 284 285 285 286 286 284 282 279 277 275 271 269
252 251 250 250 251 250 251 252 253 253 255 256 257 259 260 262 264 266 267 269 271 273 274 276 278 279 281 282 282 283 282 280 278 277 274 270 268 266
252 250 249 249 249 250 251 251 252 253 255 256 257 258 260 261 263 264 266 267 268 270 272 274 275 277 278 279 279 279 278 277 276 274 271 267 266 264
251 251 250 249 249 249 249 250 251 252 253 255 256 257 259 260 261 262 264 265 267 268 270 270 272 274 275 276 275 275 275 274 272 270 268 266 264 262
252 251 250 249 249 250 251 251 252 252 252 253 254 256 257 258 259 261 262 263 264 266 267 268 270 272 273 273 273 272 271 270 269 267 265 264 263 262
251 250 249 249 249 249 250 250 250 250 251 251 252 253 254 256 257 259 260 261 263 264 264 265 267 269 269 270 270 269 268 267 266 265 264 263 263 261
250 249 247 247 247 247 247 247 247 248 249 249 250 251 252 253 255 256 258 259 260 262 262 264 265 266 267 267 267 266 265 264 264 262 262 262 262 261
248 247 246 245 245 244 245 245 245 246 246 247 248 248 250 251 252 253 255 257 258 259 260 262 263 263 264 264 264 263 262 263 263 262 261 262 262 261
247 245 244 243 243 242 242 243 243 243 244 245 246 247 248 248 250 252 254 255 256 257 259 260 260 260 261 262 262 261 261 262 262 261 260 261 261 261
246 245 243 242 240 239 240 240 241 241 242 244 244 245 246 248 249 251 253 254 255 256 257 257 258 258 259 260 260 260 260 260 261 260 260 260 261 262
244 243 242 240 239 238 238 239 239 239 240 242 242 243 245 246 248 250 251 252 253 254 255 255 255 256 257 259 260 259 259 260 260 260 260 261 262 263
241 240 239 238 237 236 236 237 237 238 239 240 241 243 244 245 247 248 249 250 251 253 253 253 253 255 257 258 258 257 258 259 260 260 261 262 263 264
238 237 236 235 234 233 233 234 234 236 238 239 239 240 242 244 245 246 248 249 249 250 251 252 253 254 255 256 257 256 257 258 259 260 261 263 265 265
236 234 232 231 231 231 232 232 233 234 235 236 237 239 241 242 243 244 246 247 248 249 249 250 252 254 255 256 256 257 258 258 259 260 262 264 266 266
Height
5720 5722 5723 5725 5727 5728 5730 5731 5732 5733 5734 5734 5734 5734 5733 5733 5733 5733 5732 5731 5730 5728 5726 5724 5721 5718 5714 5710 5707 5703 5699 5695 5691 5688 5684 5681 5679 5677
5709 5711 5713 5714 5716 5717 5718 5719 5720 5721 5722 5722 5722 5722 5722 5722 5722 5722 5721 5721 5719 5718 5716 5713 5711 5707 5704 5700 5697 5693 5689 5685 5682 5679 5675 5673 5670 5668
5697 5699 5701 5702 5703 5705 5706 5707 5708 5708 5709 5710 5711 5711 5711 5711 5711 5711 5711 5710 5708 5707 5705 5703 5700 5697 5694 5691 5687 5684 5680 5676 5673 5669 5666 5664 5662 5660
5685 5686 5688 5689 5690 5692 5693 5694 5695 5696 5697 5698 5699 5699 5700 5700 5700 5700 5699 5699 5697 5696 5694 5692 5690 5687 5684 5681 5677 5674 5670 5667 5664 5661 5658 5656 5654 5652
5672 5673 5674 5676 5677 5678 5679 5681 5682 5683 5684 5685 5686 5687 5687 5688 5688 5688 5688 5687 5686 5685 5683 5681 5679 5676 5674 5671 5667 5664 5661 5658 5655 5652 5650 5648 5646 5645
5658 5659 5660 5662 5663 5664 5666 5667 5668 5670 5671 5673 5674 5675 5675 5675 5676 5676 5676 5676 5675 5674 5672 5670 5668 5666 5663 5660 5658 5655 5652 5649 5646 5644 5642 5641 5639 5638
5643 5644 5645 5647 5648 5650 5652 5653 5655 5657 5658 5659 5661 5662 5663 5664 5664 5664 5664 5664 5663 5662 5661 5660 5658 5656 5653 5651 5648 5646 5643 5640 5638 5636 5635 5633 5632 5632
5627 5629 5630 5632 5634 5636 5637 5639 5641 5643 5645 5646 5648 5649 5650 5651 5652 5652 5653 5652 5652 5651 5650 5649 5647 5645 5643 5641 5639 5636 5634 5632 5630 5629 5628 5627 5626 5625
5611 5613 5615 5617 5619 5621 5623 5625 5627 5629 5631 5633 5635 5636 5637 5639 5640 5640 5640 5640 5640 5639 5638 5637 5636 5635 5633 5631 5629 5628 5626 5624 5622 5621 5621 5620 5619 5619
5594 5596 5598 5601 5603 5605 5608 5610 5613 5615 5617 5619 5621 5622 5624 5625 5626 5627 5628 5628 5628 5627 5627 5627 5625 5624 5623 5621 5620 5619 5617 5616 5615 5614 5613 5613 5613 5613
5576 5579 5581 5584 5587 5589 5592 5595 5598 5600 5602 5605 5607 5609 5610 5612 5613 5615 5615 5616 5616 5616 5616 5616 5615 5614 5613 5612 5611 5610 5609 5608 5608 5607 5607 5606 5606 5607
5558 5560 5563 5566 5569 5572 5575 5578 5582 5585 5587 5590 5593 5595 5597 5599 5600 5602 5603 5604 5604 5605 5604 5604 5604 5604 5603 5603 5602 5601 5600 5600 5600 5600 5599 5599 5600 5600
5538 5541 5544 5547 5551 5554 5558 5562 5565 5569 5572 5575 5578 5581 5583 5585 5587 5589 5590 5591 5592 5593 5593 5593 5593 5593 5594 5593 5593 5592 5592 5592 5592 5592 5592 5592 5593 5593
5519 5522 5525 5529 5532 5536 5541 5545 5549 5553 5557 5560 5564 5567 5569 5572 5574 5576 5577 5579 5580 5581 5582 5583 5583 5584 5584 5584 5584 5584 5584 5584 5584 5584 5585 5585 5586 5586
5498 5502 5506 5510 5514 5519 5523 5528 5532 5537 5541 5546 5550 5553 5556 5559 5561 5563 5565 5567 5568 5570 5571 5572 5573 5573 5574 5574 5574 5575 5575 5576 5576 5576 5577 5577 5578 5579
5476 5481 5487 5492 5497 5502 5507 5511 5516 5522 5526 5531 5535 5538 5542 5545 5548 5550 5553 5555 5557 5558 5560 5561 5562 5563 5564 5564 5565 5565 5566 5567 5568 5568 5569 5569 5570 5571
5456 5461 5467 5473 5479 5485 5490 5495 5501 5506 5511 5516 5520 5524 5528 5532 5535 5538 5541 5543 5545 5547 5549 5550 5551 5553 5554 5555 5555 5556 5557 5558 5559 5560 5560 5561 5562 5563
5437 5443 5449 5455 5462 5468 5474 5479 5485 5491 5496 5501 5506 5510 5514 5518 5522 5526 5529 5531 5534 5536 5538 5539 5541 5542 5544 5545 5546 5547 5548 5549 5550 5551 5552 5553 5553 5554
5420 5426 5432 5439 5445 5452 5458 5464 5470 5476 5481 5486 5492 5497 5501 5506 5510 5513 5516 5519 5522 5524 5527 5529 5531 5532 5534 5535 5537 5538 5539 5540 5541 5542 5543 5544 5545 5545
5404 5410 5416 5423 5429 5436 5443 5450 5456 5461 5467 5473 5479 5484 5489 5493 5497 5501 5504 5508 5510 5513 5516 5518 5520 5522 5524 5526 5527 5528 5529 5530 5531 5532 5533 5534 5535 5536
5389 5395 5401 5408 5415 5422 5429 5436 5443 5449 5455 5461 5466 5471 5476 5481 5485 5489 5493 5496 5499 5502 5505 5508 5509 5512 5514 5515 5517 5518 5519 5520 5522 5523 5524 5525 5525 5526
5375 5381 5387 5394 5402 5409 5417 5424 5430 5437 5443 5448 5454 5459 5465 5469 5474 5478 5482 5485 5488 5492 5494 5497 5499 5501 5503 5505 5506 5507 5509 5510 5511 5512 5513 5515 5515 5515
5362 5368 5375 5383 5390 5398 5405 5412 5419 5425 5431 5437 5443 5449 5454 5458 5463 5467 5471 5474 5478 5481 5483 5486 5489 5491 5493 5494 5496 5497 5499 5500 5501 5502 5503 5504 5504 5505